Location: Ariel
(45.9570°N, 122.5700°W)
Time: 21:09:52
(UTC-07:00)

Transit 4A - Visible Passes

Search period start: 20 July 2019 00:00
Search period end: 30 July 2019 00:00
Orbit: 862 x 982 km, 66.8° (Epoch: 20 July)

Date Brightness Start Highest point End Pass type
(mag) Time Alt. Az. Time Alt. Az. Time Alt. Az.
20 Jul 8.2 02:41:07 35° S 02:43:43 60° ESE 02:50:02 10° NE visible
20 Jul 9.1 04:24:44 10° WSW 04:30:29 34° NW 04:36:17 10° NNE visible
21 Jul 9.8 01:06:41 15° ESE 01:07:35 16° ESE 01:11:13 10° ENE visible
21 Jul 8.0 02:50:12 36° SSW 02:53:00 84° ESE 02:59:29 10° NE visible
21 Jul 9.5 04:34:51 10° W 04:40:10 27° NW 04:45:30 10° NNE visible
22 Jul 9.3 01:15:44 23° ESE 01:16:35 23° ESE 01:21:29 10° NE visible
22 Jul 8.1 02:59:14 32° SW 03:02:23 72° NW 03:08:51 10° NNE visible
22 Jul 9.8 04:45:09 10° W 04:49:56 21° NNW 04:54:43 10° NNE visible
23 Jul 8.8 01:24:45 32° SE 01:25:41 34° ESE 01:31:21 10° NE visible
23 Jul 8.5 03:08:15 25° WSW 03:11:51 53° NW 03:18:09 10° NNE visible
23 Jul 10.1 04:55:37 10° WNW 04:59:46 17° NNW 05:03:55 10° NNE visible
24 Jul 8.3 01:33:44 44° SE 01:34:51 48° ESE 01:41:00 10° NE visible
24 Jul 8.9 03:17:14 19° WSW 03:21:24 40° NW 03:27:25 10° NNE visible
24 Jul 10.2 05:06:14 10° NW 05:09:41 15° NNW 05:13:07 10° NNE visible
24 Jul 10.0 23:59:10 12° E 23:59:10 12° E 00:01:06 10° E visible
25 Jul 8.0 01:42:39 52° S 01:44:06 68° ESE 01:50:30 10° NE visible
25 Jul 9.4 03:26:09 13° W 03:31:02 31° NW 03:36:39 10° NNE visible
26 Jul 9.6 00:08:04 18° E 00:08:04 18° E 00:12:03 10° ENE visible
26 Jul 7.9 01:51:34 50° SW 01:53:26 87° WNW 01:59:55 10° NNE visible
26 Jul 9.7 03:35:36 10° W 03:40:44 24° NW 03:45:53 10° NNE visible
27 Jul 9.1 00:16:54 27° ESE 00:16:54 27° ESE 00:22:08 10° NE visible
27 Jul 8.2 02:00:24 38° WSW 02:02:50 65° NW 02:09:16 10° NNE visible
27 Jul 10.0 03:45:58 10° WNW 03:50:31 20° NNW 03:55:04 10° NNE visible
28 Jul 8.6 00:25:43 38° ESE 00:26:02 38° ESE 00:31:54 10° NE visible
28 Jul 8.7 02:09:12 28° WSW 02:12:20 48° NW 02:18:33 10° NNE visible
28 Jul 10.2 03:56:29 10° WNW 04:00:23 16° NNW 04:04:16 10° NNE visible
29 Jul 8.1 00:34:27 52° SE 00:35:14 55° ESE 00:41:29 10° NE visible
29 Jul 9.2 02:17:57 19° W 02:21:54 36° NW 02:27:48 10° NNE visible
29 Jul 10.4 04:07:09 10° NW 04:10:19 14° NNW 04:13:29 10° N visible
29 Jul 9.7 22:59:40 14° E 22:59:40 14° E 23:02:18 10° ENE visible
